{"data":{"norad_id":69027,"intl_designator":"2026-101C","name":"STARLINK-37548","alt_names":[],"object_type":"PAYLOAD","status":"ACTIVE","operator":null,"country":"US","launch_date":"2026-05-06","launch_site_code":"AFWTR","launch_vehicle":null,"mission":null,"orbit_class":"UNKNOWN","rcs_meters":null,"size_class":null,"mass_kg":null,"dimensions":null,"purposes":["comms"],"wikipedia_slug":null,"has_3d_model":false,"image_url":null,"decayed_at":null,"tle_current":{"epoch":"2026-05-25T03:37:10.140384Z","epoch_age_seconds":72738,"freshness":"FRESH","line1":"1 69027U 26101C   26145.15081181  .00137640  00000+0  90747-3 0  9997","line2":"2 69027  97.2847 359.8943 0001256  83.9658 276.1751 15.75225880  3013","mean_motion":15.7522588,"eccentricity":0.0001256,"inclination_deg":97.2847,"raan_deg":359.8943,"arg_perigee_deg":83.9658,"mean_anomaly_deg":276.1751,"bstar":0.00090747,"rev_number":301,"period_min":91.415461000425,"perigee_km":343.14419147872,"apogee_km":344.83278940192,"semimajor_km":6722.1254904403,"source":"CELESTRAK","updated_at":"2026-05-25T13:38:22.079310Z"}}}